カタログに戻る

THOR BURNER 2 DEB

LostPO
NORAD 25101·DEBRIS·🇺🇸 United States

打ち上げ Jun 29, 1967 から Vandenberg Space Force Base

Loading…

次のパス (今後24時間)

TLE

古いSource: Space-Track

元期: Dec 17, 2013, 05:24 UTC

1 25101U 67065D   13351.22551170 -.00000095  00000-0 -59669-1 0  9991
2 25101  90.3864 295.0340 0068856  57.0312 303.7121  8.37771014550594

AllMySatでTHOR BURNER 2 DEBをリアルタイム追跡

Download on the App Store